This is the latest recevied weather packets stored in our database for station/object KF6ILA. If no packets are shown the sender has not sent any weather packets the latest 10 day(s).
| Time | Temp. | Humidity | Pressure | Rain* | Wind** | Luminosity | Snow |
|---|---|---|---|---|---|---|---|
| 1787953158 | 33.89° C | 32% | 1016.9 hPa | 0 mm | - | 844 W/m² | - |
| 1787952861 | 33.89° C | 31% | 1017 hPa | 0 mm | - | 860 W/m² | - |
| 1787952564 | 33.89° C | 30% | 1017 hPa | 0 mm | - | 861 W/m² | - |
| 1787952267 | 33.89° C | 31% | 1017.2 hPa | 0 mm | - | 868 W/m² | - |
| 1787951970 | 33.89° C | 31% | 1017.3 hPa | 0 mm | - | 879 W/m² | - |
| 1787951376 | 33.89° C | 31% | 1017.3 hPa | 0 mm | - | 896 W/m² | - |
| 1787951079 | 33.89° C | 30% | 1017.3 hPa | 0 mm | - | 907 W/m² | - |
| 1787950485 | 33.33° C | 31% | 1017.4 hPa | 0 mm | - | 916 W/m² | - |
| 1787950188 | 33.33° C | 31% | 1017.4 hPa | 0 mm | - | 918 W/m² | - |
| 1787949297 | 33.89° C | 31% | 1017.7 hPa | 0 mm | - | 933 W/m² | - |
| 1787949000 | 33.33° C | 31% | 1017.7 hPa | 0 mm | - | 942 W/m² | - |
| 1787948110 | 33.89° C | 30% | 1017.7 hPa | 0 mm | - | 940 W/m² | - |
| 1787947812 | 34.44° C | 30% | 1017.8 hPa | 0 mm | - | 953 W/m² | - |
| 1787947515 | 33.89° C | 30% | 1018 hPa | 0 mm | - | 956 W/m² | - |
| 1787946624 | 33.89° C | 31% | 1018 hPa | 0 mm | - | 956 W/m² | - |
| 1787946030 | 33.89° C | 30% | 1018.2 hPa | 0 mm | - | 958 W/m² | - |
| 1787945436 | 33.89° C | 29% | 1018.3 hPa | 0 mm | - | 953 W/m² | - |
| 1787945139 | 33.89° C | 29% | 1018.2 hPa | 0 mm | - | 953 W/m² | - |
| 1787944842 | 33.89° C | 29% | 1018.3 hPa | 0 mm | - | 946 W/m² | - |
| 1787944727 | 33.33° C | 30% | 1018.4 hPa | 0 mm | - | 912 W/m² | - |
| 1787944545 | 33.89° C | 29% | 1018.4 hPa | 0 mm | - | 942 W/m² | - |
| 1787943951 | 33.33° C | 29% | 1018.5 hPa | 0 mm | - | 935 W/m² | - |
| 1787943654 | 33.33° C | 29% | 1018.4 hPa | 0 mm | - | 905 W/m² | - |
| 1787943060 | 33.33° C | 30% | 1018.5 hPa | 0 mm | - | 921 W/m² | - |
| 1787942466 | 33.33° C | 30% | 1018.4 hPa | 0 mm | - | 912 W/m² | - |
* Rain latest hour (hover to see other rain measurements)
** Current wind speed in m/s (hover to see current wind gust speed)